Time,TemperatureF,DewpointF,PressureIn,WindDirection,WindDirectionDegrees,WindSpeedMPH,WindSpeedGustMPH,Humidity,HourlyPrecipIn,Conditions,Clouds,dailyrainin,SolarRadiationWatts/m^2,SoftwareType,DateUTC
2013-02-27 00:00:00,36.0,31.6,29.75,West,264,2.4,3.0,83,0.00,,,0.00,0,TxWx,2013-02-27 05:00:00,
2013-02-27 00:05:00,35.9,31.4,29.74,WNW,287,2.4,5.0,83,0.00,,,0.00,0,TxWx,2013-02-27 05:05:00,
2013-02-27 00:10:00,35.9,31.5,29.74,SSW,210,5.0,5.0,83,0.00,,,0.00,0,TxWx,2013-02-27 05:10:00,
2013-02-27 00:15:00,35.8,31.4,29.74,SSW,210,2.4,2.4,83,0.00,,,0.00,0,TxWx,2013-02-27 05:15:00,
2013-02-27 00:20:00,35.7,31.2,29.74,West,276,5.0,6.0,83,0.00,,,0.00,0,TxWx,2013-02-27 05:20:00,
2013-02-27 00:25:00,35.7,31.3,29.74,WSW,245,3.5,3.5,83,0.00,,,0.00,0,TxWx,2013-02-27 05:25:00,
2013-02-27 00:30:00,35.6,31.5,29.75,WNW,284,6.1,6.1,84,0.00,,,0.00,0,TxWx,2013-02-27 05:30:00,
2013-02-27 00:35:00,35.5,31.6,29.75,NW,310,6.1,8.0,85,0.00,,,0.00,0,TxWx,2013-02-27 05:35:00,
2013-02-27 00:40:00,35.3,31.5,29.74,West,269,5.0,6.0,85,0.00,,,0.00,0,TxWx,2013-02-27 05:40:00,
2013-02-27 00:45:00,35.3,31.5,29.75,WNW,302,5.0,6.0,85,0.00,,,0.00,0,TxWx,2013-02-27 05:45:00,
2013-02-27 00:50:00,35.3,31.5,29.75,WSW,246,2.4,2.4,86,0.00,,,0.00,0,TxWx,2013-02-27 05:50:00,
2013-02-27 00:55:00,35.1,31.7,29.75,NNW,346,5.0,5.0,87,0.00,,,0.00,0,TxWx,2013-02-27 05:55:00,
2013-02-27 01:00:00,35.0,31.2,29.75,WSW,245,3.5,5.0,85,0.00,,,0.00,0,TxWx,2013-02-27 06:00:00,
2013-02-27 01:05:00,35.1,31.0,29.75,West,259,3.5,5.0,84,0.00,,,0.00,0,TxWx,2013-02-27 06:05:00,
2013-02-27 01:10:00,34.9,30.9,29.75,West,273,2.4,2.4,85,0.00,,,0.00,0,TxWx,2013-02-27 06:10:00,
2013-02-27 01:15:00,34.5,31.1,29.75,West,277,5.0,6.0,87,0.00,,,0.00,0,TxWx,2013-02-27 06:15:00,
2013-02-27 01:20:00,34.5,31.0,29.75,West,276,5.0,6.0,86,0.00,,,0.00,0,TxWx,2013-02-27 06:20:00,
2013-02-27 01:25:00,34.4,31.0,29.75,WNW,287,6.1,6.1,87,0.00,,,0.00,0,TxWx,2013-02-27 06:25:00,
2013-02-27 01:30:00,34.4,30.5,29.75,SW,222,3.5,5.0,85,0.00,,,0.00,0,TxWx,2013-02-27 06:30:00,
2013-02-27 01:35:00,34.5,30.4,29.75,West,279,6.1,6.1,84,0.00,,,0.00,0,TxWx,2013-02-27 06:35:00,
2013-02-27 01:40:00,34.5,30.4,29.75,WNW,288,5.0,6.0,84,0.00,,,0.00,0,TxWx,2013-02-27 06:40:00,
2013-02-27 01:45:00,34.4,30.4,29.75,WNW,282,8.5,9.0,85,0.00,,,0.00,0,TxWx,2013-02-27 06:45:00,
2013-02-27 01:50:00,34.4,30.5,29.76,WSW,257,3.5,5.0,85,0.00,,,0.00,0,TxWx,2013-02-27 06:50:00,
2013-02-27 01:55:00,34.3,30.6,29.75,WNW,288,6.1,6.1,86,0.00,,,0.00,0,TxWx,2013-02-27 06:55:00,
2013-02-27 02:00:00,34.4,30.6,29.76,West,275,5.0,6.0,85,0.00,,,0.00,0,TxWx,2013-02-27 07:00:00,
2013-02-27 02:05:00,34.3,30.4,29.76,WNW,291,6.1,8.0,85,0.00,,,0.00,0,TxWx,2013-02-27 07:05:00,
2013-02-27 02:10:00,34.2,30.5,29.75,West,280,6.1,7.0,85,0.00,,,0.00,0,TxWx,2013-02-27 07:10:00,
2013-02-27 02:15:00,34.2,30.4,29.75,South,180,3.5,3.5,85,0.00,,,0.00,0,TxWx,2013-02-27 07:15:00,
2013-02-27 02:20:00,33.7,30.6,29.75,West,270,6.1,6.1,88,0.00,,,0.00,0,TxWx,2013-02-27 07:20:00,
2013-02-27 02:25:00,33.3,31.0,29.75,WNW,296,13.5,13.5,91,0.00,,,0.00,0,TxWx,2013-02-27 07:25:00,
2013-02-27 02:30:00,33.3,31.1,29.75,West,277,7.4,7.4,91,0.00,,,0.00,0,TxWx,2013-02-27 07:30:00,
2013-02-27 02:35:00,33.2,31.0,29.75,WNW,296,6.1,6.1,91,0.00,,,0.00,0,TxWx,2013-02-27 07:35:00,
2013-02-27 02:40:00,33.3,30.8,29.75,West,269,8.5,11.0,90,0.00,,,0.00,0,TxWx,2013-02-27 07:40:00,
2013-02-27 02:45:00,33.2,30.6,29.76,West,266,5.0,5.0,90,0.00,,,0.00,0,TxWx,2013-02-27 07:45:00,
2013-02-27 02:50:00,33.0,30.5,29.76,WSW,254,5.0,5.0,90,0.00,,,0.00,0,TxWx,2013-02-27 07:50:00,
2013-02-27 02:55:00,32.9,30.2,29.76,West,278,5.0,5.0,90,0.00,,,0.00,0,TxWx,2013-02-27 07:55:00,
2013-02-27 03:00:00,32.8,30.0,29.76,WSW,242,6.1,7.0,89,0.00,,,0.00,0,TxWx,2013-02-27 08:00:00,
2013-02-27 03:07:00,32.6,30.0,29.76,WNW,287,6.1,6.1,89,0.00,,,0.00,0,TxWx,2013-02-27 08:07:00,
2013-02-27 03:12:00,32.5,29.9,29.76,WSW,239,6.1,7.0,89,0.00,,,0.00,0,TxWx,2013-02-27 08:12:00,
2013-02-27 03:17:00,32.4,29.7,29.76,West,268,3.5,3.5,89,0.00,,,0.00,0,TxWx,2013-02-27 08:17:00,
2013-02-27 03:22:00,32.3,29.7,29.76,West,267,8.5,8.5,90,0.00,,,0.00,0,TxWx,2013-02-27 08:22:00,
2013-02-27 03:27:00,32.2,29.7,29.76,West,274,3.5,6.0,90,0.00,,,0.00,0,TxWx,2013-02-27 08:27:00,
2013-02-27 03:32:00,32.2,29.4,29.76,WSW,256,7.4,7.4,89,0.00,,,0.00,0,TxWx,2013-02-27 08:32:00,
2013-02-27 03:37:00,32.1,29.2,29.76,WNW,292,8.5,8.5,88,0.00,,,0.00,0,TxWx,2013-02-27 08:37:00,
2013-02-27 03:42:00,32.1,29.3,29.76,West,278,5.0,7.0,89,0.00,,,0.00,0,TxWx,2013-02-27 08:42:00,
2013-02-27 03:47:00,32.1,29.1,29.76,SW,221,5.0,5.0,88,0.00,,,0.00,0,TxWx,2013-02-27 08:47:00,
2013-02-27 03:52:00,32.1,29.0,29.76,West,272,6.1,7.0,88,0.00,,,0.00,0,TxWx,2013-02-27 08:52:00,
2013-02-27 03:57:00,32.1,28.9,29.76,WNW,294,5.0,6.0,87,0.00,,,0.00,0,TxWx,2013-02-27 08:57:00,
2013-02-27 04:02:00,32.2,28.9,29.76,WNW,291,3.5,5.0,87,0.00,,,0.00,0,TxWx,2013-02-27 09:02:00,
2013-02-27 04:07:00,32.3,28.7,29.76,SW,233,3.5,5.0,86,0.00,,,0.00,0,TxWx,2013-02-27 09:07:00,
2013-02-27 04:12:00,32.2,28.7,29.77,WSW,242,5.0,7.0,86,0.00,,,0.00,0,TxWx,2013-02-27 09:12:00,
2013-02-27 04:17:00,32.4,28.5,29.77,West,268,6.1,7.0,85,0.00,,,0.00,0,TxWx,2013-02-27 09:17:00,
2013-02-27 04:22:00,32.4,28.6,29.77,WNW,300,7.4,7.4,86,0.00,,,0.00,0,TxWx,2013-02-27 09:22:00,
2013-02-27 04:27:00,32.5,28.6,29.77,WNW,298,6.1,6.1,85,0.00,,,0.00,0,TxWx,2013-02-27 09:27:00,
2013-02-27 04:32:00,32.5,28.5,29.77,WNW,287,6.1,6.1,85,0.00,,,0.00,0,TxWx,2013-02-27 09:32:00,
2013-02-27 04:37:00,32.5,28.5,29.77,West,260,7.4,7.4,85,0.00,,,0.00,0,TxWx,2013-02-27 09:37:00,
2013-02-27 04:42:00,32.4,28.6,29.77,West,265,6.1,6.1,85,0.00,,,0.00,0,TxWx,2013-02-27 09:42:00,
2013-02-27 04:47:00,32.3,28.8,29.77,West,271,2.4,3.0,86,0.00,,,0.00,0,TxWx,2013-02-27 09:47:00,
2013-02-27 04:52:00,32.2,28.8,29.77,WSW,247,5.0,5.0,87,0.00,,,0.00,0,TxWx,2013-02-27 09:52:00,
2013-02-27 04:57:00,32.3,28.8,29.77,West,272,6.1,6.1,86,0.00,,,0.00,0,TxWx,2013-02-27 09:57:00,
2013-02-27 05:02:00,32.3,28.8,29.77,West,269,3.5,5.0,86,0.00,,,0.00,0,TxWx,2013-02-27 10:02:00,
2013-02-27 05:07:00,32.3,28.8,29.77,WNW,293,5.0,6.0,86,0.00,,,0.00,0,TxWx,2013-02-27 10:07:00,
2013-02-27 05:12:00,32.3,28.8,29.77,WNW,282,6.1,6.1,86,0.00,,,0.00,0,TxWx,2013-02-27 10:12:00,
2013-02-27 05:17:00,32.3,28.8,29.78,West,265,5.0,5.0,86,0.00,,,0.00,0,TxWx,2013-02-27 10:17:00,
2013-02-27 05:22:00,32.3,28.7,29.78,NW,314,7.4,8.0,86,0.00,,,0.00,0,TxWx,2013-02-27 10:22:00,
2013-02-27 05:27:00,32.3,28.8,29.78,SSW,192,3.5,6.0,86,0.00,,,0.00,0,TxWx,2013-02-27 10:27:00,
2013-02-27 05:32:00,32.2,28.7,29.78,NNW,335,5.0,5.0,86,0.00,,,0.00,0,TxWx,2013-02-27 10:32:00,
2013-02-27 05:37:00,32.1,28.9,29.78,WSW,246,5.0,6.0,87,0.00,,,0.00,0,TxWx,2013-02-27 10:37:00,
2013-02-27 05:42:00,32.0,28.9,29.79,WNW,287,3.5,5.0,88,0.00,,,0.00,0,TxWx,2013-02-27 10:42:00,
2013-02-27 05:47:00,32.1,29.1,29.79,West,262,5.0,6.0,88,0.00,,,0.00,0,TxWx,2013-02-27 10:47:00,
2013-02-27 05:52:00,32.2,29.1,29.79,West,262,5.0,5.0,88,0.00,,,0.00,0,TxWx,2013-02-27 10:52:00,
2013-02-27 05:57:00,31.9,29.2,29.79,NW,310,2.4,2.4,89,0.00,,,0.00,0,TxWx,2013-02-27 10:57:00,
2013-02-27 06:02:00,31.8,29.2,29.79,West,273,6.1,7.0,90,0.00,,,0.00,0,TxWx,2013-02-27 11:02:00,
2013-02-27 06:07:00,32.0,29.4,29.79,WSW,256,3.5,3.5,89,0.00,,,0.00,0,TxWx,2013-02-27 11:07:00,
2013-02-27 06:12:00,31.9,29.2,29.79,West,271,8.5,8.5,89,0.00,,,0.00,0,TxWx,2013-02-27 11:12:00,
2013-02-27 06:17:00,31.7,28.9,29.79,WSW,254,6.1,9.0,89,0.00,,,0.00,0,TxWx,2013-02-27 11:17:00,
2013-02-27 06:22:00,31.5,28.8,29.80,West,266,3.5,5.0,89,0.00,,,0.00,0,TxWx,2013-02-27 11:22:00,
2013-02-27 06:27:00,31.4,28.8,29.80,SW,220,3.5,5.0,89,0.00,,,0.00,0,TxWx,2013-02-27 11:27:00,
2013-02-27 06:32:00,31.2,28.8,29.80,West,263,5.0,5.0,90,0.00,,,0.00,0,TxWx,2013-02-27 11:32:00,
2013-02-27 06:39:00,30.9,28.6,29.80,West,275,3.5,8.0,91,0.00,,,0.00,0,TxWx,2013-02-27 11:39:00,
2013-02-27 06:44:00,30.9,28.5,29.80,WSW,255,3.5,3.5,90,0.00,,,0.00,0,TxWx,2013-02-27 11:44:00,
2013-02-27 06:49:00,30.8,28.3,29.80,NW,307,2.4,2.4,90,0.00,,,0.00,0,TxWx,2013-02-27 11:49:00,
2013-02-27 06:54:00,30.8,28.2,29.80,WNW,292,5.0,5.0,89,0.00,,,0.00,1,TxWx,2013-02-27 11:54:00,
2013-02-27 06:59:00,30.8,28.1,29.80,WSW,250,2.4,3.0,89,0.00,,,0.00,1,TxWx,2013-02-27 11:59:00,
2013-02-27 07:04:00,30.7,28.0,29.80,NNW,331,0.0,1.0,89,0.00,,,0.00,3,TxWx,2013-02-27 12:04:00,
2013-02-27 07:09:00,30.8,28.0,29.80,WNW,297,3.5,3.5,89,0.00,,,0.00,5,TxWx,2013-02-27 12:09:00,
2013-02-27 07:14:00,30.6,28.0,29.80,West,275,5.0,5.0,89,0.00,,,0.00,6,TxWx,2013-02-27 12:14:00,
2013-02-27 07:19:00,30.6,28.0,29.80,WNW,296,2.4,2.4,90,0.00,,,0.00,8,TxWx,2013-02-27 12:19:00,
2013-02-27 07:24:00,30.4,28.0,29.81,WNW,296,5.0,5.0,90,0.00,,,0.00,9,TxWx,2013-02-27 12:24:00,
2013-02-27 07:29:00,30.5,28.1,29.81,WNW,283,1.1,0.0,90,0.00,,,0.00,14,TxWx,2013-02-27 12:29:00,
2013-02-27 07:34:00,30.7,28.0,29.81,NW,305,1.1,1.1,89,0.00,,,0.00,21,TxWx,2013-02-27 12:34:00,
2013-02-27 07:39:00,30.7,28.0,29.82,NW,317,2.4,2.4,89,0.00,,,0.00,22,TxWx,2013-02-27 12:39:00,
2013-02-27 07:44:00,30.6,27.7,29.82,North,359,1.1,1.1,88,0.00,,,0.00,18,TxWx,2013-02-27 12:44:00,
2013-02-27 07:49:00,30.8,27.8,29.83,SSW,213,1.1,2.0,88,0.00,,,0.00,16,TxWx,2013-02-27 12:49:00,
2013-02-27 07:54:00,30.8,27.7,29.83,NW,305,2.4,2.4,88,0.00,,,0.00,16,TxWx,2013-02-27 12:54:00,
2013-02-27 07:59:00,30.7,27.8,29.83,WSW,245,1.1,1.1,89,0.00,,,0.00,14,TxWx,2013-02-27 12:59:00,
2013-02-27 08:04:00,30.8,27.9,29.83,NW,318,0.0,1.0,88,0.00,,,0.00,15,TxWx,2013-02-27 13:04:00,
2013-02-27 08:09:00,30.6,28.0,29.83,WNW,302,1.1,1.1,89,0.00,,,0.00,15,TxWx,2013-02-27 13:09:00,
2013-02-27 08:14:00,30.7,27.9,29.83,SW,224,1.1,1.1,89,0.00,,,0.00,15,TxWx,2013-02-27 13:14:00,
2013-02-27 08:19:00,30.6,28.0,29.83,West,269,0.0,1.0,89,0.00,,,0.00,15,TxWx,2013-02-27 13:19:00,
2013-02-27 08:24:00,30.5,28.2,29.83,WSW,256,0.0,0.0,91,0.00,,,0.00,15,TxWx,2013-02-27 13:24:00,
2013-02-27 08:29:00,30.3,28.2,29.84,SSE,152,1.1,2.0,92,0.00,,,0.00,15,TxWx,2013-02-27 13:29:00,
2013-02-27 08:34:00,30.2,28.3,29.83,South,187,1.1,1.1,92,0.00,,,0.00,16,TxWx,2013-02-27 13:34:00,
2013-02-27 08:39:00,30.4,28.3,29.84,East,81,3.5,5.0,91,0.00,,,0.00,16,TxWx,2013-02-27 13:39:00,
2013-02-27 08:44:00,30.7,28.3,29.83,SSW,197,2.4,2.4,90,0.00,,,0.00,16,TxWx,2013-02-27 13:44:00,
2013-02-27 08:49:00,30.7,28.4,29.83,SSW,207,2.4,2.4,91,0.00,,,0.00,16,TxWx,2013-02-27 13:49:00,
2013-02-27 08:54:00,30.9,28.6,29.83,WSW,245,0.0,1.0,90,0.00,,,0.00,16,TxWx,2013-02-27 13:54:00,
2013-02-27 08:59:00,31.1,28.7,29.83,SSW,194,3.5,3.5,90,0.00,,,0.00,17,TxWx,2013-02-27 13:59:00,
2013-02-27 09:04:00,31.1,28.8,29.83,ESE,110,0.0,0.0,91,0.00,,,0.00,17,TxWx,2013-02-27 14:04:00,
2013-02-27 09:09:00,31.2,28.9,29.83,SW,228,0.0,0.0,90,0.00,,,0.00,18,TxWx,2013-02-27 14:09:00,
2013-02-27 09:14:00,31.6,28.9,29.84,SW,221,2.4,2.4,89,0.00,,,0.00,18,TxWx,2013-02-27 14:14:00,
2013-02-27 09:19:00,31.8,29.0,29.84,West,279,1.1,1.1,89,0.00,,,0.00,19,TxWx,2013-02-27 14:19:00,
2013-02-27 09:24:00,32.0,29.0,29.85,SW,231,1.1,2.0,88,0.00,,,0.00,19,TxWx,2013-02-27 14:24:00,
2013-02-27 09:29:00,32.6,29.7,29.85,NW,314,5.0,5.0,88,0.00,,,0.00,20,TxWx,2013-02-27 14:29:00,
2013-02-27 09:34:00,33.3,29.9,29.85,North,359,1.1,1.1,87,0.00,,,0.00,21,TxWx,2013-02-27 14:34:00,
2013-02-27 09:39:00,33.6,30.3,29.86,West,278,1.1,2.0,87,0.00,,,0.00,22,TxWx,2013-02-27 14:39:00,
2013-02-27 09:44:00,34.0,30.3,29.86,NW,306,2.4,2.4,86,0.00,,,0.00,23,TxWx,2013-02-27 14:44:00,
2013-02-27 09:49:00,34.1,30.2,29.86,WNW,300,6.1,6.1,85,0.00,,,0.00,24,TxWx,2013-02-27 14:49:00,
2013-02-27 09:54:00,34.5,30.4,29.85,West,260,3.5,3.5,84,0.00,,,0.00,25,TxWx,2013-02-27 14:54:00,
2013-02-27 09:59:00,34.9,30.2,29.85,West,265,2.4,2.4,82,0.00,,,0.00,26,TxWx,2013-02-27 14:59:00,
2013-02-27 10:04:00,35.2,30.6,29.85,NW,318,1.1,2.0,82,0.00,,,0.00,27,TxWx,2013-02-27 15:04:00,
2013-02-27 10:09:00,35.5,30.4,29.85,NW,304,2.4,3.0,81,0.00,,,0.00,28,TxWx,2013-02-27 15:09:00,
2013-02-27 10:14:00,36.1,30.7,29.85,SSW,207,2.4,2.4,80,0.00,,,0.00,28,TxWx,2013-02-27 15:14:00,
2013-02-27 10:19:00,36.5,30.7,29.85,WSW,246,2.4,3.0,79,0.00,,,0.00,51,TxWx,2013-02-27 15:19:00,
2013-02-27 10:24:00,36.9,31.1,29.85,North,351,2.4,3.0,79,0.00,,,0.00,32,TxWx,2013-02-27 15:24:00,
2013-02-27 10:29:00,36.8,30.5,29.85,SW,220,3.5,3.5,77,0.00,,,0.00,33,TxWx,2013-02-27 15:29:00,
2013-02-27 10:34:00,37.0,30.9,29.85,West,279,3.5,5.0,78,0.00,,,0.00,45,TxWx,2013-02-27 15:34:00,
2013-02-27 10:39:00,37.6,31.7,29.85,WNW,300,3.5,3.5,79,0.00,,,0.00,102,TxWx,2013-02-27 15:39:00,
2013-02-27 10:44:00,38.0,31.7,29.86,NNW,328,3.5,3.5,77,0.00,,,0.00,89,TxWx,2013-02-27 15:44:00,
2013-02-27 10:49:00,38.2,31.8,29.86,WSW,245,5.0,5.0,77,0.00,,,0.00,108,TxWx,2013-02-27 15:49:00,
2013-02-27 10:54:00,38.0,31.0,29.86,SW,235,3.5,5.0,75,0.00,,,0.00,82,TxWx,2013-02-27 15:54:00,
2013-02-27 10:59:00,38.0,30.8,29.86,WSW,257,2.4,3.0,74,0.00,,,0.00,99,TxWx,2013-02-27 15:59:00,
2013-02-27 11:04:00,38.5,32.1,29.86,WNW,292,2.4,3.0,77,0.00,,,0.00,87,TxWx,2013-02-27 16:04:00,
2013-02-27 11:09:00,39.0,32.3,29.86,WNW,296,3.5,3.5,76,0.00,,,0.00,133,TxWx,2013-02-27 16:09:00,
2013-02-27 11:14:00,39.5,32.7,29.86,WNW,290,1.1,2.0,76,0.00,,,0.00,249,TxWx,2013-02-27 16:14:00,
2013-02-27 11:19:00,39.7,32.4,29.85,WSW,250,3.5,5.0,74,0.00,,,0.00,476,TxWx,2013-02-27 16:19:00,
2013-02-27 11:24:00,40.0,32.4,29.85,WNW,293,3.5,5.0,74,0.00,,,0.00,512,TxWx,2013-02-27 16:24:00,
2013-02-27 11:29:00,40.3,32.5,29.85,WNW,299,2.4,2.4,73,0.00,,,0.00,590,TxWx,2013-02-27 16:29:00,
2013-02-27 11:34:00,40.6,32.3,29.85,West,265,3.5,3.5,71,0.00,,,0.00,535,TxWx,2013-02-27 16:34:00,
2013-02-27 11:39:00,40.9,31.8,29.85,NNW,337,2.4,2.4,69,0.00,,,0.00,419,TxWx,2013-02-27 16:39:00,
2013-02-27 11:44:00,40.9,31.6,29.85,WNW,298,1.1,1.1,69,0.00,,,0.00,217,TxWx,2013-02-27 16:44:00,
2013-02-27 11:49:00,41.4,32.4,29.85,West,275,5.0,6.0,70,0.00,,,0.00,451,TxWx,2013-02-27 16:49:00,
2013-02-27 11:54:00,41.9,33.2,29.85,WNW,286,1.1,2.0,70,0.00,,,0.00,376,TxWx,2013-02-27 16:54:00,
2013-02-27 11:59:00,41.7,31.8,29.85,SW,235,2.4,2.4,67,0.00,,,0.00,549,TxWx,2013-02-27 16:59:00,
2013-02-27 12:04:00,42.1,31.8,29.85,West,270,2.4,2.4,66,0.00,,,0.00,568,TxWx,2013-02-27 17:04:00,
2013-02-27 12:09:00,42.8,32.5,29.85,West,262,3.5,3.5,66,0.00,,,0.00,424,TxWx,2013-02-27 17:09:00,
2013-02-27 12:14:00,42.7,32.0,29.85,North,5,1.1,1.1,65,0.00,,,0.00,506,TxWx,2013-02-27 17:14:00,
2013-02-27 12:19:00,43.5,32.4,29.84,West,266,2.4,3.0,64,0.00,,,0.00,400,TxWx,2013-02-27 17:19:00,
2013-02-27 12:24:00,44.1,32.8,29.84,NW,307,1.1,2.0,64,0.00,,,0.00,498,TxWx,2013-02-27 17:24:00,
2013-02-27 12:29:00,44.9,33.5,29.84,West,279,2.4,2.4,64,0.00,,,0.00,663,TxWx,2013-02-27 17:29:00,
2013-02-27 12:34:00,45.2,32.3,29.84,SW,225,3.5,3.5,60,0.00,,,0.00,664,TxWx,2013-02-27 17:34:00,
2013-02-27 12:39:00,46.0,33.9,29.84,NW,312,0.0,1.0,62,0.00,,,0.00,665,TxWx,2013-02-27 17:39:00,
2013-02-27 12:44:00,46.5,32.9,29.84,West,269,3.5,3.5,58,0.00,,,0.00,667,TxWx,2013-02-27 17:44:00,
2013-02-27 12:49:00,46.8,32.5,29.84,West,276,2.4,3.0,57,0.00,,,0.00,668,TxWx,2013-02-27 17:49:00,
2013-02-27 12:54:00,48.1,33.8,29.84,WNW,299,9.8,9.8,57,0.00,,,0.00,670,TxWx,2013-02-27 17:54:00,
2013-02-27 12:59:00,48.0,32.4,29.83,WNW,296,3.5,3.5,54,0.00,,,0.00,671,TxWx,2013-02-27 17:59:00,
2013-02-27 13:04:00,47.3,30.6,29.83,West,263,5.0,6.0,52,0.00,,,0.00,670,TxWx,2013-02-27 18:04:00,
2013-02-27 13:09:00,47.5,31.6,29.83,WNW,300,3.5,3.5,53,0.00,,,0.00,671,TxWx,2013-02-27 18:09:00,
2013-02-27 13:14:00,48.6,33.3,29.83,WNW,292,6.1,6.1,55,0.00,,,0.00,669,TxWx,2013-02-27 18:14:00,
2013-02-27 13:19:00,48.0,30.9,29.83,WNW,289,7.4,7.4,51,0.00,,,0.00,669,TxWx,2013-02-27 18:19:00,
2013-02-27 13:24:00,48.0,30.7,29.83,SW,234,5.0,6.0,51,0.00,,,0.00,667,TxWx,2013-02-27 18:24:00,
2013-02-27 13:29:00,48.0,31.2,29.83,WNW,288,11.0,11.0,51,0.00,,,0.00,666,TxWx,2013-02-27 18:29:00,
2013-02-27 13:34:00,47.8,30.4,29.83,West,270,3.5,3.5,50,0.00,,,0.00,666,TxWx,2013-02-27 18:34:00,
2013-02-27 13:39:00,47.5,29.5,29.83,WNW,295,14.8,16.0,49,0.00,,,0.00,664,TxWx,2013-02-27 18:39:00,
2013-02-27 13:44:00,47.9,29.8,29.83,NW,305,7.4,11.0,49,0.00,,,0.00,663,TxWx,2013-02-27 18:44:00,
2013-02-27 13:49:00,47.6,29.9,29.83,WNW,282,7.4,8.0,50,0.00,,,0.00,661,TxWx,2013-02-27 18:49:00,
2013-02-27 13:54:00,47.6,29.1,29.83,NW,314,11.0,12.0,48,0.00,,,0.00,656,TxWx,2013-02-27 18:54:00,
2013-02-27 13:59:00,47.6,29.7,29.83,NW,313,14.8,14.8,49,0.00,,,0.00,652,TxWx,2013-02-27 18:59:00,
2013-02-27 14:04:00,47.3,29.2,29.83,West,277,7.4,7.4,49,0.00,,,0.00,648,TxWx,2013-02-27 19:04:00,
2013-02-27 14:09:00,47.5,29.4,29.83,WNW,287,7.4,7.4,49,0.00,,,0.00,642,TxWx,2013-02-27 19:09:00,
2013-02-27 14:14:00,47.3,28.9,29.83,WSW,256,2.4,3.0,48,0.00,,,0.00,634,TxWx,2013-02-27 19:14:00,
2013-02-27 14:19:00,47.8,30.1,29.83,WSW,241,2.4,3.0,50,0.00,,,0.00,630,TxWx,2013-02-27 19:19:00,
2013-02-27 14:24:00,47.4,29.0,29.83,NW,306,9.8,12.0,48,0.00,,,0.00,623,TxWx,2013-02-27 19:24:00,
2013-02-27 14:29:00,47.4,28.9,29.83,WSW,256,5.0,5.0,48,0.00,,,0.00,613,TxWx,2013-02-27 19:29:00,
2013-02-27 14:35:00,47.9,30.3,29.83,West,277,6.1,8.0,50,0.00,,,0.00,605,TxWx,2013-02-27 19:35:00,
2013-02-27 14:40:00,47.9,29.8,29.83,NW,310,6.1,6.1,49,0.00,,,0.00,597,TxWx,2013-02-27 19:40:00,
2013-02-27 14:45:00,47.4,28.4,29.83,WSW,246,7.4,7.4,47,0.00,,,0.00,583,TxWx,2013-02-27 19:45:00,
2013-02-27 14:50:00,47.4,29.1,29.83,WSW,240,8.5,8.5,48,0.00,,,0.00,490,TxWx,2013-02-27 19:50:00,
2013-02-27 14:55:00,47.1,28.1,29.83,WNW,282,8.5,8.5,47,0.00,,,0.00,479,TxWx,2013-02-27 19:55:00,
2013-02-27 15:13:00,47.5,30.3,29.83,WNW,283,9.8,12.0,51,0.00,,,0.00,359,TxWx,2013-02-27 20:13:00,
2013-02-27 15:19:00,47.6,29.6,29.83,WSW,254,7.4,11.0,49,0.00,,,0.00,369,TxWx,2013-02-27 20:19:00,
2013-02-27 15:24:00,47.6,30.4,29.83,NNW,328,9.8,9.8,50,0.00,,,0.00,198,TxWx,2013-02-27 20:24:00,
2013-02-27 15:29:00,47.4,28.7,29.83,West,275,2.4,2.4,47,0.00,,,0.00,374,TxWx,2013-02-27 20:29:00,
2013-02-27 15:46:00,48.0,29.9,29.82,West,281,5.0,9.0,49,0.00,,,0.00,127,TxWx,2013-02-27 20:46:00,
2013-02-27 15:51:00,48.1,30.4,29.82,West,267,3.5,5.0,50,0.00,,,0.00,268,TxWx,2013-02-27 20:51:00,
2013-02-27 15:56:00,48.2,31.1,29.82,NW,312,7.4,7.4,51,0.00,,,0.00,275,TxWx,2013-02-27 20:56:00,
2013-02-27 16:01:00,48.2,30.2,29.82,NW,310,13.5,16.0,49,0.00,,,0.00,261,TxWx,2013-02-27 21:01:00,
2013-02-27 16:06:00,48.0,30.1,29.82,WNW,298,6.1,7.0,49,0.00,,,0.00,213,TxWx,2013-02-27 21:06:00,
2013-02-27 16:11:00,48.0,30.3,29.82,NW,311,2.4,3.0,50,0.00,,,0.00,289,TxWx,2013-02-27 21:11:00,
2013-02-27 16:19:00,47.9,29.6,29.82,SW,230,5.0,5.0,48,0.00,,,0.00,46,TxWx,2013-02-27 21:19:00,
2013-02-27 16:24:00,47.9,29.7,29.82,WSW,254,6.1,7.0,49,0.00,,,0.00,223,TxWx,2013-02-27 21:24:00,
2013-02-27 16:29:00,47.9,29.2,29.82,WSW,237,5.0,6.0,48,0.00,,,0.00,255,TxWx,2013-02-27 21:29:00,
2013-02-27 16:34:00,48.2,30.1,29.82,WNW,282,6.1,6.1,49,0.00,,,0.00,227,TxWx,2013-02-27 21:34:00,
2013-02-27 16:43:00,47.4,27.6,29.82,WSW,245,6.1,9.0,46,0.00,,,0.00,208,TxWx,2013-02-27 21:43:00,
2013-02-27 16:48:00,47.4,28.0,29.82,West,281,2.4,3.0,46,0.00,,,0.00,172,TxWx,2013-02-27 21:48:00,
2013-02-27 16:53:00,47.4,28.4,29.82,WSW,253,2.4,3.0,47,0.00,,,0.00,194,TxWx,2013-02-27 21:53:00,
2013-02-27 16:58:00,47.5,29.3,29.82,WNW,287,3.5,3.5,48,0.00,,,0.00,156,TxWx,2013-02-27 21:58:00,
2013-02-27 17:03:00,47.5,28.5,29.82,West,281,6.1,6.1,47,0.00,,,0.00,127,TxWx,2013-02-27 22:03:00,
2013-02-27 17:08:00,47.2,28.8,29.82,NW,308,5.0,6.0,48,0.00,,,0.00,164,TxWx,2013-02-27 22:08:00,
2013-02-27 17:13:00,46.8,28.3,29.82,North,1,3.5,3.5,48,0.00,,,0.00,92,TxWx,2013-02-27 22:13:00,
2013-02-27 17:18:00,46.4,28.7,29.83,West,275,2.4,2.4,49,0.00,,,0.00,93,TxWx,2013-02-27 22:18:00,
2013-02-27 17:23:00,46.2,28.2,29.83,WSW,250,3.5,5.0,49,0.00,,,0.00,153,TxWx,2013-02-27 22:23:00,
2013-02-27 17:28:00,45.9,28.6,29.83,WNW,298,3.5,3.5,50,0.00,,,0.00,178,TxWx,2013-02-27 22:28:00,
2013-02-27 17:48:00,44.8,27.7,29.83,WSW,255,3.5,5.0,50,0.00,,,0.00,70,TxWx,2013-02-27 22:48:00,
2013-02-27 17:53:00,44.1,28.3,29.83,West,281,8.5,8.5,53,0.00,,,0.00,40,TxWx,2013-02-27 22:53:00,
2013-02-27 17:58:00,44.0,26.9,29.84,WNW,283,3.5,5.0,50,0.00,,,0.00,43,TxWx,2013-02-27 22:58:00,
2013-02-27 18:03:00,43.7,26.8,29.84,South,191,7.4,7.4,51,0.00,,,0.00,19,TxWx,2013-02-27 23:03:00,
2013-02-27 18:08:00,43.7,26.5,29.84,NW,311,7.4,7.4,50,0.00,,,0.00,9,TxWx,2013-02-27 23:08:00,
2013-02-27 18:13:00,43.1,26.7,29.84,WNW,297,6.1,6.1,52,0.00,,,0.00,7,TxWx,2013-02-27 23:13:00,
2013-02-27 18:18:00,43.0,26.6,29.84,West,262,6.1,7.0,51,0.00,,,0.00,5,TxWx,2013-02-27 23:18:00,
2013-02-27 18:23:00,42.8,26.7,29.84,West,271,3.5,5.0,52,0.00,,,0.00,3,TxWx,2013-02-27 23:23:00,
2013-02-27 18:28:00,42.7,26.8,29.84,West,268,6.1,7.0,53,0.00,,,0.00,2,TxWx,2013-02-27 23:28:00,
2013-02-27 18:33:00,42.7,26.9,29.85,WNW,286,3.5,5.0,53,0.00,,,0.00,1,TxWx,2013-02-27 23:33:00,
2013-02-27 18:38:00,42.6,27.5,29.85,WNW,289,2.4,2.4,54,0.00,,,0.00,0,TxWx,2013-02-27 23:38:00,
2013-02-27 18:43:00,42.0,27.7,29.85,WSW,243,1.1,1.1,56,0.00,,,0.00,0,TxWx,2013-02-27 23:43:00,
2013-02-27 18:48:00,42.0,27.8,29.85,WSW,257,5.0,5.0,56,0.00,,,0.00,0,TxWx,2013-02-27 23:48:00,
2013-02-27 18:53:00,42.0,28.1,29.85,South,187,2.4,3.0,57,0.00,,,0.00,0,TxWx,2013-02-27 23:53:00,
2013-02-27 18:58:00,42.2,28.0,29.85,WSW,256,3.5,3.5,56,0.00,,,0.00,0,TxWx,2013-02-27 23:58:00,
2013-02-27 19:03:00,42.0,28.4,29.84,NNE,32,1.1,0.0,58,0.00,,,0.00,0,TxWx,2013-02-28 00:03:00,
2013-02-27 19:08:00,41.9,28.4,29.84,WSW,253,3.5,3.5,58,0.00,,,0.00,0,TxWx,2013-02-28 00:08:00,
2013-02-27 19:13:00,41.8,28.6,29.84,WSW,258,3.5,5.0,59,0.00,,,0.00,0,TxWx,2013-02-28 00:13:00,
2013-02-27 19:18:00,41.9,28.8,29.84,WSW,244,6.1,6.1,59,0.00,,,0.00,0,TxWx,2013-02-28 00:18:00,
2013-02-27 19:23:00,41.7,29.0,29.84,West,272,5.0,5.0,60,0.00,,,0.00,0,TxWx,2013-02-28 00:23:00,
2013-02-27 19:28:00,41.5,29.0,29.85,WSW,254,9.8,9.8,60,0.00,,,0.00,0,TxWx,2013-02-28 00:28:00,
2013-02-27 19:33:00,40.9,30.0,29.84,NW,313,7.4,7.4,65,0.00,,,0.00,0,TxWx,2013-02-28 00:33:00,
2013-02-27 19:38:00,40.5,30.5,29.84,West,277,7.4,8.0,67,0.00,,,0.00,0,TxWx,2013-02-28 00:38:00,
2013-02-27 19:43:00,40.5,30.3,29.85,WNW,282,5.0,6.0,66,0.00,,,0.00,0,TxWx,2013-02-28 00:43:00,
2013-02-27 19:48:00,39.8,31.0,29.85,WSW,253,7.4,7.4,70,0.00,,,0.00,0,TxWx,2013-02-28 00:48:00,
2013-02-27 19:53:00,39.7,31.3,29.85,WSW,254,3.5,5.0,71,0.00,,,0.00,0,TxWx,2013-02-28 00:53:00,
2013-02-27 19:58:00,39.7,31.2,29.85,WSW,252,5.0,6.0,71,0.00,,,0.00,0,TxWx,2013-02-28 00:58:00,
2013-02-27 20:03:00,39.7,31.1,29.84,West,277,6.1,7.0,71,0.00,,,0.00,0,TxWx,2013-02-28 01:03:00,
2013-02-27 20:08:00,39.6,31.4,29.85,WSW,253,3.5,5.0,72,0.00,,,0.00,0,TxWx,2013-02-28 01:08:00,
2013-02-27 20:13:00,39.0,31.9,29.85,SW,234,5.0,6.0,75,0.00,,,0.00,0,TxWx,2013-02-28 01:13:00,
2013-02-27 20:18:00,38.6,32.3,29.85,WNW,282,8.5,8.5,77,0.00,,,0.00,0,TxWx,2013-02-28 01:18:00,
2013-02-27 20:23:00,38.1,32.6,29.85,WNW,303,9.8,11.0,80,0.00,,,0.00,0,TxWx,2013-02-28 01:23:00,
2013-02-27 20:28:00,37.7,33.2,29.86,WSW,255,7.4,8.0,83,0.00,,,0.00,0,TxWx,2013-02-28 01:28:00,
2013-02-27 20:33:00,36.8,33.7,29.86,WSW,239,5.0,0.0,88,0.00,,,0.00,0,TxWx,2013-02-28 01:33:00,
2013-02-27 20:38:00,36.1,33.8,29.85,West,259,3.5,5.0,91,0.00,,,0.00,0,TxWx,2013-02-28 01:38:00,
2013-02-27 20:43:00,36.0,34.2,29.85,West,268,3.5,3.5,93,0.00,,,0.00,0,TxWx,2013-02-28 01:43:00,
2013-02-27 20:48:00,35.9,34.4,29.85,WNW,289,7.4,8.0,94,0.00,,,0.00,0,TxWx,2013-02-28 01:48:00,
2013-02-27 20:53:00,36.4,34.2,29.85,WSW,257,3.5,5.0,91,0.00,,,0.00,0,TxWx,2013-02-28 01:53:00,
2013-02-27 20:58:00,36.5,34.2,29.85,SW,217,3.5,5.0,91,0.00,,,0.00,0,TxWx,2013-02-28 01:58:00,
2013-02-27 21:03:00,36.8,33.7,29.85,West,265,5.0,5.0,88,0.00,,,0.00,0,TxWx,2013-02-28 02:03:00,
2013-02-27 21:08:00,36.9,33.6,29.85,SSW,209,5.0,6.0,87,0.00,,,0.00,0,TxWx,2013-02-28 02:08:00,
2013-02-27 21:13:00,37.0,33.5,29.85,West,262,13.5,13.5,87,0.00,,,0.00,0,TxWx,2013-02-28 02:13:00,
2013-02-27 21:18:00,37.0,33.4,29.85,WSW,251,5.0,5.0,86,0.00,,,0.00,0,TxWx,2013-02-28 02:18:00,
2013-02-27 21:23:00,36.9,33.4,29.85,SW,232,6.1,6.1,86,0.00,,,0.00,0,TxWx,2013-02-28 02:23:00,
2013-02-27 21:29:00,37.0,33.1,29.85,West,272,8.5,12.0,85,0.00,,,0.00,0,TxWx,2013-02-28 02:29:00,
2013-02-27 21:34:00,37.2,32.9,29.85,West,261,3.5,3.5,84,0.00,,,0.00,0,TxWx,2013-02-28 02:34:00,
2013-02-27 21:39:00,37.1,32.9,29.85,WSW,247,7.4,8.0,84,0.00,,,0.00,0,TxWx,2013-02-28 02:39:00,
2013-02-27 21:44:00,37.1,32.9,29.85,WSW,256,6.1,7.0,84,0.00,,,0.00,0,TxWx,2013-02-28 02:44:00,
2013-02-27 21:49:00,36.9,32.9,29.85,West,270,6.1,6.1,85,0.00,,,0.00,0,TxWx,2013-02-28 02:49:00,
2013-02-27 21:54:00,36.9,32.9,29.85,West,263,6.1,7.0,85,0.00,,,0.00,0,TxWx,2013-02-28 02:54:00,
2013-02-27 21:59:00,36.7,33.0,29.85,West,266,3.5,5.0,86,0.00,,,0.00,0,TxWx,2013-02-28 02:59:00,
2013-02-27 22:04:00,36.5,32.7,29.86,WSW,242,5.0,6.0,86,0.00,,,0.00,0,TxWx,2013-02-28 03:04:00,
2013-02-27 22:09:00,36.1,32.7,29.86,West,269,5.0,6.0,87,0.00,,,0.00,0,TxWx,2013-02-28 03:09:00,
2013-02-27 22:15:00,35.8,32.5,29.86,SW,231,6.1,7.0,87,0.00,,,0.00,0,TxWx,2013-02-28 03:15:00,
2013-02-27 22:20:00,35.8,32.2,29.85,West,264,7.4,7.4,86,0.00,,,0.00,0,TxWx,2013-02-28 03:20:00,
2013-02-27 22:25:00,35.7,32.0,29.85,WNW,292,7.4,7.4,86,0.00,,,0.00,0,TxWx,2013-02-28 03:25:00,
2013-02-27 22:30:00,35.5,31.8,29.85,West,268,8.5,8.5,86,0.00,,,0.00,0,TxWx,2013-02-28 03:30:00,
2013-02-27 22:35:00,35.5,31.8,29.85,WNW,283,8.5,8.5,86,0.00,,,0.00,0,TxWx,2013-02-28 03:35:00,
2013-02-27 22:40:00,35.5,31.4,29.85,West,263,6.1,6.1,84,0.00,,,0.00,0,TxWx,2013-02-28 03:40:00,
2013-02-27 22:45:00,35.5,31.3,29.85,WSW,258,7.4,7.4,84,0.00,,,0.00,0,TxWx,2013-02-28 03:45:00,
2013-02-27 22:50:00,35.4,30.9,29.85,WNW,282,2.4,2.4,83,0.00,,,0.00,0,TxWx,2013-02-28 03:50:00,
2013-02-27 22:55:00,35.3,30.3,29.85,West,264,3.5,5.0,81,0.00,,,0.00,0,TxWx,2013-02-28 03:55:00,
2013-02-27 23:00:00,35.3,30.1,29.85,WSW,241,6.1,7.0,80,0.00,,,0.00,0,TxWx,2013-02-28 04:00:00,
2013-02-27 23:05:00,35.3,29.6,29.85,WNW,287,5.0,6.0,79,0.00,,,0.00,0,TxWx,2013-02-28 04:05:00,
2013-02-27 23:10:00,35.3,29.3,29.85,West,273,11.0,11.0,78,0.00,,,0.00,0,TxWx,2013-02-28 04:10:00,
2013-02-27 23:15:00,35.2,29.1,29.84,SW,218,12.1,13.0,78,0.00,,,0.00,0,TxWx,2013-02-28 04:15:00,
2013-02-27 23:20:00,35.1,28.6,29.84,WNW,292,11.0,11.0,77,0.00,,,0.00,0,TxWx,2013-02-28 04:20:00,
2013-02-27 23:25:00,35.2,28.3,29.84,NW,306,7.4,7.4,75,0.00,,,0.00,0,TxWx,2013-02-28 04:25:00,
2013-02-27 23:30:00,35.1,28.2,29.84,West,264,6.1,6.1,75,0.00,,,0.00,0,TxWx,2013-02-28 04:30:00,
2013-02-27 23:35:00,35.0,28.1,29.84,WNW,287,8.5,8.5,75,0.00,,,0.00,0,TxWx,2013-02-28 04:35:00,
2013-02-27 23:42:00,34.8,27.7,29.84,West,281,8.5,9.0,75,0.00,,,0.00,0,TxWx,2013-02-28 04:42:00,
2013-02-27 23:47:00,34.7,27.5,29.84,SW,225,6.1,8.0,74,0.00,,,0.00,0,TxWx,2013-02-28 04:47:00,
2013-02-27 23:52:00,34.7,26.9,29.84,SW,227,5.0,6.0,72,0.00,,,0.00,0,TxWx,2013-02-28 04:52:00,
2013-02-27 23:57:00,34.5,27.3,29.84,NW,310,7.4,8.0,74,0.00,,,0.00,0,TxWx,2013-02-28 04:57:00,